KC5ZJO-1 Weather Reports


time (UTC)temp
C
wind
direction
speed
KPH
gust
KPH
rain 1hr
cm
rain 24hr
cm
rain mn
cm
humidity
%
barometer
mb
20260506035004 21 205 3.2 17.7 0.00 0.00 0.00 67 1010.3
20260506034503 21 186 4.8 16.1 0.00 0.00 0.00 67 1010.2
20260506034003 21 187 8.0 16.1 0.00 0.00 0.00 67 1010.2
20260506033504 21 170 4.8 17.7 0.00 0.00 0.00 66 1010.3
20260506033003 21 182 9.7 17.7 0.00 0.00 0.00 66 1010.2
20260506032503 21 193 8.0 17.7 0.00 0.00 0.00 67 1010.2
20260506032003 21 190 8.0 20.9 0.00 0.00 0.00 67 1010.2
20260506031503 21 179 4.8 20.9 0.00 0.00 0.00 67 1010.3
20260506031004 21 166 4.8 19.3 0.00 0.00 0.00 67 1010.2
20260506030503 21 184 8.0 19.3 0.00 0.00 0.00 67 1010.2
20260506030003 21 181 4.8 19.3 0.00 0.00 0.00 67 1010.3
20260506025504 21 193 9.7 16.1 0.00 0.00 0.00 67 1010.3
20260506025004 21 173 8.0 22.5 0.00 0.00 0.00 67 1010.3
20260506024503 21 179 8.0 22.5 0.00 0.00 0.00 67 1010.2
20260506024003 21 191 8.0 20.9 0.00 0.00 0.00 67 1010.0
20260506023503 21 174 6.4 20.9 0.00 0.00 0.00 67 1009.9
20260506023003 21 180 3.2 20.9 0.00 0.00 0.00 67 1010.0
20260506022503 21 190 4.8 20.9 0.00 0.00 0.00 67 1010.1
20260506022025 21 193 8.0 19.3 0.00 0.00 0.00 68 1010.0
20260506021525 21 194 11.3 19.3 0.00 0.00 0.00 68 1009.9
20260506021003 21 186 4.8 16.1 0.00 0.00 0.00 68 1009.9
20260506020503 21 204 8.0 19.3 0.00 0.00 0.00 68 1009.6
20260506020003 21 164 8.0 19.3 0.00 0.00 0.00 68 1009.1
20260506015524 21 193 4.8 14.5 0.00 0.00 0.00 67 1009.3
20260506015003 21 168 4.8 16.1 0.00 0.00 0.00 67 1009.5
20260506014504 21 180 8.0 22.5 0.00 0.00 0.00 67 1009.5
20260506014003 21 194 4.8 22.5 0.00 0.00 0.00 66 1010.0
20260506013503 21 195 8.0 17.7 0.00 0.00 0.00 66 1010.0
20260506013004 21 192 8.0 17.7 0.00 0.00 0.00 67 1009.9
20260506012503 21 177 1.6 19.3 0.00 0.00 0.00 66 1009.7
20260506012003 21 185 6.4 20.9 0.00 0.00 0.00 66 1009.9
20260506011503 21 177 9.7 20.9 0.00 0.00 0.00 66 1009.7
20260506011003 21 178 11.3 20.9 0.00 0.00 0.00 66 1009.7
20260506010502 21 168 8.0 20.9 0.00 0.00 0.00 66 1009.6
20260506010003 21 179 6.4 17.7 0.00 0.00 0.00 66 1009.6
20260506005503 21 189 8.0 17.7 0.00 0.00 0.00 66 1009.7
20260506005024 21 166 1.6 20.9 0.00 0.00 0.00 65 1009.6
20260506004504 21 175 6.4 20.9 0.00 0.00 0.00 65 1009.6
20260506004003 21 193 6.4 22.5 0.00 0.00 0.00 64 1009.7
20260506003524 21 189 8.0 22.5 0.00 0.00 0.00 64 1009.7
20260506003004 21 194 6.4 19.3 0.00 0.00 0.00 64 1009.7
20260506002504 21 195 11.3 19.3 0.00 0.00 0.00 64 1009.6
20260506002003 22 163 4.8 19.3 0.00 0.00 0.00 64 1009.5
20260506001503 22 178 6.4 19.3 0.00 0.00 0.00 63 1009.5
20260506001004 22 171 8.0 20.9 0.00 0.00 0.00 63 1009.5
20260506000503 22 185 6.4 20.9 0.00 0.00 0.00 63 1009.6
20260506000004 22 189 9.7 22.5 0.00 0.00 0.00 63 1009.6
20260505235525 22 196 8.0 25.7 0.00 0.00 0.00 63 1009.5
20260505235002 22 188 9.7 25.7 0.00 0.00 0.00 63 1009.6
20260505234503 22 183 4.8 20.9 0.00 0.00 0.00 63 1009.7
20260505234002 22 186 8.0 17.7 0.00 0.00 0.00 62 1009.9
20260505233503 22 177 6.4 17.7 0.00 0.00 0.00 62 1010.0
20260505233003 22 189 9.7 20.9 0.00 0.00 0.00 62 1010.1
20260505232503 22 186 8.0 20.9 0.00 0.00 0.00 62 1010.1
20260505232045 22 175 6.4 19.3 0.00 0.00 0.00 61 1010.2
20260505231504 22 182 3.2 27.4 0.00 0.00 0.00 61 1010.3
20260505231003 22 191 11.3 27.4 0.00 0.00 0.00 61 1010.5
20260505230503 22 188 9.7 20.9 0.00 0.00 0.00 60 1010.5
20260505230002 22 166 9.7 22.5 0.00 0.00 0.00 60 1010.4
20260505225524 22 186 11.3 25.7 0.00 0.00 0.00 60 1010.5
20260505225025 22 197 11.3 25.7 0.00 0.00 0.00 60 1010.4
20260505224503 22 179 1.6 25.7 0.00 0.00 0.00 60 1010.5
20260505224003 22 196 9.7 17.7 0.00 0.00 0.00 61 1010.5
20260505223503 22 182 6.4 17.7 0.00 0.00 0.00 61 1010.5
20260505223003 22 192 8.0 17.7 0.00 0.00 0.00 61 1010.7
20260505222524 22 176 8.0 27.4 0.00 0.00 0.00 60 1010.8
20260505222002 22 200 14.5 27.4 0.00 0.00 0.00 60 1010.8
20260505221504 22 206 11.3 19.3 0.00 0.00 0.00 60 1010.8
20260505221003 22 187 11.3 19.3 0.00 0.00 0.00 60 1010.8
20260505220502 22 184 9.7 22.5 0.00 0.00 0.00 59 1010.6
20260505220002 22 198 11.3 30.6 0.00 0.00 0.00 59 1010.7
20260505215503 22 181 11.3 30.6 0.00 0.00 0.00 58 1010.8
20260505215003 22 183 11.3 27.4 0.00 0.00 0.00 58 1010.8
20260505214503 22 198 8.0 27.4 0.00 0.00 0.00 58 1010.8
20260505214024 22 202 9.7 30.6 0.00 0.00 0.00 58 1010.7
20260505213525 22 197 12.9 30.6 0.00 0.00 0.00 57 1010.8
20260505213003 22 203 17.7 29.0 0.00 0.00 0.00 56 1010.8
20260505212524 22 187 6.4 35.4 0.00 0.00 0.00 57 1010.8
20260505212024 22 198 17.7 35.4 0.00 0.00 0.00 55 1010.9
20260505211504 23 183 12.9 30.6 0.00 0.00 0.00 56 1010.9
20260505211003 23 200 12.9 27.4 0.00 0.00 0.00 56 1010.9
20260505210502 23 182 12.9 30.6 0.00 0.00 0.00 56 1010.8
20260505210024 22 198 17.7 30.6 0.00 0.00 0.00 55 1010.9
20260505205502 22 195 11.3 27.4 0.00 0.00 0.00 56 1010.8
20260505205003 22 190 9.7 25.7 0.00 0.00 0.00 57 1010.7
20260505204502 22 187 12.9 25.7 0.00 0.00 0.00 57 1010.6
20260505204002 22 175 11.3 20.9 0.00 0.00 0.00 57 1010.6
20260505203503 22 202 9.7 20.9 0.00 0.00 0.00 56 1010.5
20260505203002 22 186 8.0 24.1 0.00 0.00 0.00 56 1010.6
20260505202503 22 187 12.9 25.7 0.00 0.00 0.00 56 1010.5
20260505202003 22 193 12.9 25.7 0.00 0.00 0.00 56 1010.6
20260505201503 22 193 1.6 17.7 0.00 0.00 0.00 57 1010.8
20260505201003 22 187 6.4 17.7 0.00 0.00 0.00 56 1010.8
20260505200503 22 157 3.2 17.7 0.00 0.00 0.00 57 1010.7
20260505200003 22 159 4.8 17.7 0.00 0.00 0.00 57 1010.7
20260505195503 22 150 1.6 20.9 0.00 0.00 0.00 56 1010.9
20260505195002 22 187 11.3 20.9 0.00 0.00 0.00 55 1010.9
20260505194502 22 186 9.7 20.9 0.00 0.00 0.00 55 1010.8
20260505194003 22 186 8.0 19.3 0.00 0.00 0.00 56 1010.8
20260505193502 22 194 8.0 19.3 0.00 0.00 0.00 57 1010.8
20260505193024 22 187 9.7 19.3 0.00 0.00 0.00 56 1010.9
20260505192503 22 188 8.0 19.3 0.00 0.00 0.00 56 1011.1
20260505192002 22 181 9.7 19.3 0.00 0.00 0.00 55 1011.2
20260505191502 22 188 6.4 16.1 0.00 0.00 0.00 53 1011.2
20260505191002 22 177 3.2 16.1 0.00 0.00 0.00 52 1011.6
20260505190502 23 156 0.0 20.9 0.00 0.00 0.00 52 1012.1
20260505190003 23 196 12.9 20.9 0.00 0.00 0.00 51 1012.4
20260505185503 23 198 6.4 16.1 0.00 0.00 0.00 50 1012.6
20260505185002 23 226 6.4 17.7 0.00 0.00 0.00 50 1012.7
20260505184502 23 209 11.3 19.3 0.00 0.00 0.00 49 1012.7
20260505184003 23 229 9.7 25.7 0.00 0.00 0.00 48 1012.7
20260505183502 23 223 9.7 27.4 0.00 0.00 0.00 47 1012.8
20260505183002 24 225 12.9 27.4 0.00 0.00 0.00 46 1012.8
20260505182503 24 200 8.0 24.1 0.00 0.00 0.00 46 1012.6
20260505182002 25 221 11.3 25.7 0.00 0.00 0.00 45 1012.7
20260505181502 24 210 14.5 25.7 0.00 0.00 0.00 45 1012.7
20260505181002 24 208 11.3 20.9 0.00 0.00 0.00 45 1012.8
20260505180502 25 210 8.0 20.9 0.00 0.00 0.00 45 1012.8
20260505180003 25 239 9.7 24.1 0.00 0.00 0.00 45 1012.9
20260505175503 25 203 8.0 27.4 0.00 0.00 0.00 45 1012.7
20260505175002 25 216 9.7 27.4 0.00 0.00 0.00 45 1012.6
20260505174503 24 203 11.3 25.7 0.00 0.00 0.00 46 1012.7
20260505174003 24 201 12.9 24.1 0.00 0.00 0.00 46 1012.8
20260505173503 24 186 14.5 24.1 0.00 0.00 0.00 45 1012.8
20260505173003 24 163 8.0 22.5 0.00 0.00 0.00 46 1012.8
20260505172503 23 181 9.7 22.5 0.00 0.00 0.00 47 1012.9
20260505172004 24 200 8.0 25.7 0.00 0.00 0.00 48 1012.9
20260505171504 23 188 11.3 25.7 0.00 0.00 0.00 48 1013.1
20260505171024 23 210 8.0 25.7 0.00 0.00 0.00 48 1013.1
20260505170503 23 224 14.5 25.7 0.00 0.00 0.00 48 1013.2
20260505170003 23 201 11.3 19.3 0.00 0.00 0.00 48 1013.3
20260505165503 23 206 11.3 19.3 0.00 0.00 0.00 49 1013.4
20260505165003 23 208 9.7 22.5 0.00 0.00 0.00 50 1013.3
20260505164503 23 224 11.3 25.7 0.00 0.00 0.00 50 1013.5
20260505164003 23 219 16.1 25.7 0.00 0.00 0.00 49 1013.4
20260505163502 23 195 11.3 22.5 0.00 0.00 0.00 51 1013.4
20260505163004 23 212 12.9 25.7 0.00 0.00 0.00 51 1013.3
20260505162505 23 217 11.3 25.7 0.00 0.00 0.00 51 1013.4
20260505162003 23 188 11.3 22.5 0.00 0.00 0.00 51 1013.4
20260505161503 23 193 11.3 22.5 0.00 0.00 0.00 52 1013.4
20260505161025 22 204 9.7 29.0 0.00 0.00 0.00 52 1013.4
20260505160505 22 202 20.9 29.0 0.00 0.00 0.00 52 1013.3
20260505153003 21 203 11.3 17.7 0.00 0.00 0.00 59 1013.3
20260505152504 21 216 9.7 17.7 0.00 0.00 0.00 59 1013.3
20260505152004 21 211 12.9 19.3 0.00 0.00 0.00 60 1013.3
20260505151503 21 206 6.4 19.3 0.00 0.00 0.00 60 1013.3
20260505151002 21 199 6.4 19.3 0.00 0.00 0.00 61 1013.4
20260505150503 21 198 9.7 19.3 0.00 0.00 0.00 63 1013.3
20260505140504 17 193 8.0 16.1 0.00 0.00 0.00 74 1013.5
20260505125003 11 191 0.0 0.0 0.00 0.00 0.00 83 1016.9
20260505124503 11 191 0.0 0.0 0.00 0.00 0.00 83 1016.9
20260505124024 11 191 0.0 0.0 0.00 0.00 0.00 83 1016.9
20260505123503 11 191 0.0 0.0 0.00 0.00 0.00 83 1016.9
20260505123003 11 191 0.0 0.0 0.00 0.00 0.00 83 1016.9
20260505122505 11 191 0.0 0.0 0.00 0.00 0.00 83 1016.9
20260505122003 11 191 0.0 0.0 0.00 0.00 0.00 83 1016.9
20260505121503 11 191 0.0 0.0 0.00 0.00 0.00 83 1016.9
20260505121003 11 191 0.0 0.0 0.00 0.00 0.00 83 1016.9
20260505120503 11 191 0.0 0.0 0.00 0.00 0.00 83 1016.9
20260505120003 11 191 0.0 0.0 0.00 0.00 0.00 83 1016.9
20260505115503 11 191 0.0 0.0 0.00 0.00 0.00 83 1016.9
20260505115003 11 191 0.0 0.0 0.00 0.00 0.00 83 1016.9
20260505114502 11 191 0.0 0.0 0.00 0.00 0.00 83 1016.9
20260505114003 11 191 0.0 0.0 0.00 0.00 0.00 83 1016.9
20260505113503 11 191 0.0 0.0 0.00 0.00 0.00 83 1016.9
20260505113045 11 191 0.0 0.0 0.00 0.00 0.00 83 1016.9
20260505112503 11 191 0.0 0.0 0.00 0.00 0.00 83 1016.9
20260505112046 11 191 0.0 0.0 0.00 0.00 0.00 83 1016.9
20260505111504 11 191 0.0 0.0 0.00 0.00 0.00 83 1016.9
20260505111003 11 191 0.0 0.0 0.00 0.00 0.00 83 1016.9
20260505110503 11 191 0.0 0.0 0.00 0.00 0.00 83 1016.9
20260505102025 11 191 0.0 0.0 0.00 0.00 0.00 83 1016.9
20260505101503 11 191 0.0 0.0 0.00 0.00 0.00 83 1016.9
20260505101003 11 191 0.0 0.0 0.00 0.00 0.00 83 1016.9
20260505100503 11 191 0.0 0.0 0.00 0.00 0.00 83 1016.9
20260505100003 11 191 0.0 0.0 0.00 0.00 0.00 83 1016.9
20260505095503 11 191 0.0 0.0 0.00 0.00 0.00 83 1016.9
20260505095025 11 191 0.0 0.0 0.00 0.00 0.00 83 1016.9
20260505094524 11 191 0.0 0.0 0.00 0.00 0.00 83 1016.9
20260505094024 11 191 0.0 0.0 0.00 0.00 0.00 83 1016.9
20260505093524 11 191 0.0 0.0 0.00 0.00 0.00 83 1016.9
20260505093004 11 191 0.0 0.0 0.00 0.00 0.00 83 1016.9
20260505092503 11 191 0.0 0.0 0.00 0.00 0.00 83 1016.9
20260505092004 11 191 0.0 0.0 0.00 0.00 0.00 83 1016.9
20260505091503 11 191 0.0 0.0 0.00 0.00 0.00 83 1016.9
20260505091003 11 191 0.0 0.0 0.00 0.00 0.00 83 1016.9
20260505090503 11 191 0.0 0.0 0.00 0.00 0.00 83 1016.9
20260505090004 11 191 0.0 0.0 0.00 0.00 0.00 83 1016.9
20260505085503 11 191 0.0 0.0 0.00 0.00 0.00 83 1016.9
20260505085003 11 191 0.0 0.0 0.00 0.00 0.00 83 1016.9
20260505084503 11 191 0.0 0.0 0.00 0.00 0.00 83 1016.9
20260505084004 11 191 0.0 0.0 0.00 0.00 0.00 83 1016.9
20260505083504 11 191 0.0 0.0 0.00 0.00 0.00 83 1016.9
20260505083003 11 191 0.0 0.0 0.00 0.00 0.00 83 1016.9
20260505082503 11 191 0.0 0.0 0.00 0.00 0.00 83 1016.9
20260505082004 11 191 0.0 0.0 0.00 0.00 0.00 83 1016.9
20260505081504 11 191 0.0 0.0 0.00 0.00 0.00 83 1016.9
20260505081003 11 191 0.0 0.0 0.00 0.00 0.00 83 1016.9
20260505080503 11 191 0.0 0.0 0.00 0.00 0.00 83 1016.9
20260505080004 11 191 0.0 0.0 0.00 0.00 0.00 83 1016.9
20260505075504 11 191 0.0 0.0 0.00 0.00 0.00 83 1016.9
20260505075003 11 191 0.0 0.0 0.00 0.00 0.00 83 1016.9
20260505074546 11 191 0.0 0.0 0.00 0.00 0.00 83 1016.9
20260505074004 11 191 0.0 0.0 0.00 0.00 0.00 83 1016.9
20260505073503 11 191 0.0 0.0 0.00 0.00 0.00 83 1016.9
20260505073003 11 191 0.0 0.0 0.00 0.00 0.00 83 1016.9
20260505072504 11 191 0.0 0.0 0.00 0.00 0.00 83 1016.9
20260505072004 11 191 0.0 0.0 0.00 0.00 0.00 83 1016.9
20260505071524 11 191 0.0 0.0 0.00 0.00 0.00 83 1016.9
20260505071003 11 191 0.0 0.0 0.00 0.00 0.00 83 1016.9
20260505070503 11 191 0.0 0.0 0.00 0.00 0.00 83 1016.9
20260505070004 11 191 0.0 0.0 0.00 0.00 0.00 83 1016.9
20260505065503 11 191 0.0 0.0 0.00 0.00 0.00 83 1016.9
20260505065003 11 191 0.0 0.0 0.00 0.00 0.00 83 1016.9
20260505064504 11 191 0.0 0.0 0.00 0.00 0.00 83 1016.9
20260505064003 11 191 0.0 0.0 0.00 0.00 0.00 83 1016.9
20260505063525 11 191 0.0 0.0 0.00 0.00 0.00 83 1016.9
20260505063003 11 191 0.0 0.0 0.00 0.00 0.00 83 1016.9
20260505062503 11 191 0.0 0.0 0.00 0.00 0.00 83 1016.9
20260505062004 11 191 0.0 0.0 0.00 0.00 0.00 83 1016.9
20260505061503 11 191 0.0 0.0 0.00 0.00 0.00 83 1016.9
20260505061004 11 191 0.0 0.0 0.00 0.00 0.00 83 1016.9
20260505060505 11 191 0.0 0.0 0.00 0.00 0.00 83 1016.9
20260505060004 11 191 0.0 0.0 0.00 0.00 0.00 83 1016.9
20260505055504 11 191 0.0 0.0 0.00 0.00 0.00 83 1016.9
20260505055004 11 191 0.0 0.0 0.00 0.00 0.00 83 1016.9
20260505054504 11 191 0.0 0.0 0.00 0.00 0.00 83 1016.9
20260505054004 11 191 0.0 0.0 0.00 0.00 0.00 83 1016.9
20260505053503 11 191 0.0 0.0 0.00 0.00 0.00 83 1016.9
20260505053003 11 191 0.0 0.0 0.00 0.00 0.00 83 1016.9
20260505052504 11 191 0.0 0.0 0.00 0.00 0.00 83 1016.9
20260505052003 11 191 0.0 0.0 0.00 0.00 0.00 83 1016.9
20260505051503 11 191 0.0 0.0 0.00 0.00 0.00 83 1016.9
20260505051004 11 191 0.0 0.0 0.00 0.00 0.00 83 1016.9
20260505050503 11 191 0.0 0.0 0.00 0.00 0.00 83 1016.9
20260505041503 11 191 0.0 0.0 0.00 0.00 0.00 83 1016.9
20260505041003 11 191 0.0 0.0 0.00 0.00 0.00 83 1016.9
20260505040503 11 191 0.0 0.0 0.00 0.00 0.00 83 1016.9
20260505040025 11 191 0.0 0.0 0.00 0.00 0.00 83 1016.9
20260505035503 11 191 0.0 0.0 0.00 0.00 0.00 83 1016.9